CAPE
2104 2186 2327 2733 2760 2862 3046 2960 2843 2779 2694 2586 2404 2263 2035 1842 1666 1632 1708 1805 1738 1484 1175 956 730 700 747 741 783 749 593 739 839 839 951 920 1122 1156 1221 1360 1547 1548 1586 1765 1762 1747 1652 1641 1526 1559 1441 1439 1479 1496 1692 1666 1500 1672 1773 1745 1711 1767 1667 1670 1659 1645 1518 1434 1255 1055 870 812 730 650 835 913 738 658 502 360 271 259 244 340 577
2069 2053 2098 2303 2672 2845 2890 2901 2830 2709 2599 2512 2303 2119 1923 1721 1749 1820 1889 1739 1365 1040 940 864 856 865 915 935 846 786 771 913 988 958 925 948 1147 1252 1289 1350 1460 1468 1437 1466 1489 1473 1548 1522 1558 1534 1362 1357 1416 1515 1460 1593 1582 1538 1651 1745 1768 1827 1854 1831 1794 1710 1626 1456 1182 906 841 755 638 571 597 729 673 478 397 383 355 379 382 415 383
1883 1941 2056 2195 2601 2720 2834 2812 2742 2565 2476 2371 2255 2025 1891 1911 1894 1853 1623 1322 1018 934 925 922 917 992 1045 1022 1032 1051 1057 1051 1058 981 829 999 1164 1325 1356 1495 1664 1545 1461 1306 1499 1256 1576 1485 1580 1587 1718 1534 1650 1524 1462 1483 1394 1507 1664 1719 1721 1643 1740 1794 1858 1746 1688 1475 1115 864 709 604 621 488 374 448 469 426 445 491 568 499 388 354 426
1750 1760 1655 2218 2570 2560 2612 2657 2534 2454 2365 2254 2218 2134 1959 1931 1769 1598 1405 1151 971 966 937 852 920 1107 1140 1025 1064 1028 1100 1098 968 918 915 1004 1032 1404 1456 1494 1504 1402 1672 1550 1348 1366 1472 1384 1458 1509 1612 1712 1463 1310 1408 1508 1342 1351 1526 1646 1568 1578 1579 1835 1866 1723 1710 1573 1361 482 361 248 336 523 392 332 306 334 344 338 353 316 343 355 364
1885 1299 1271 1982 2205 2515 2518 2470 2438 2316 2214 2180 2042 1958 1871 1719 1544 1381 1256 1036 907 961 888 828 897 1205 1123 1017 1034 1196 1152 994 936 1098 1187 1160 1281 1509 1265 1377 1366 1624 1508 1551 1392 1408 1398 1386 1676 1783 1597 1603 1499 1433 1440 1435 1509 1297 1395 1372 1463 1443 1406 1539 1725 1969 1811 2020 1650 322 151 184 223 401 368 350 352 310 330 298 274 249 545 776 758
1382 1280 1085 1224 1792 2143 2343 2347 2257 2179 2072 1918 1837 1819 1726 1534 1443 1331 1203 940 819 946 900 902 1091 1220 1086 1008 1039 1115 1077 1046 1280 1464 1494 1495 1541 1436 1466 1392 1366 1489 1618 1522 1450 1652 1737 1507 1589 1709 1770 1577 1492 1372 1437 1390 1359 1322 1213 1194 1008 1132 1079 718 1412 1359 1680 1680 2121 1978 137 137 141 224 304 818 676 510 428 378 294 272 652 593 638
1412 1197 1022 1067 1781 1953 2211 2192 2073 2068 2052 1926 1813 1727 1571 1511 1362 1260 1088 836 872 944 994 1016 1075 1182 1084 1117 1119 1126 1188 1406 1701 1682 1586 1514 1442 1398 1480 1458 1622 1859 1835 1710 1791 1620 1463 1560 1370 1427 1498 1470 1451 1405 1192 1202 1158 1058 883 729 746 566 941 1034 783 1156 1332 1858 942 174 146 166 191 256 504 551 658 694 751 724 429 522 767 588 610
1434 1020 966 896 1668 2026 2127 2094 2005 2002 1883 1834 1716 1553 1429 1348 1296 1115 992 933 942 1072 1121 1098 1157 1287 1216 1248 1311 1346 1404 1566 1635 1769 1632 1562 1530 1474 1459 1483 1627 1728 1628 1485 1550 1223 1183 1239 1225 1257 1396 1488 1376 1316 1174 1048 929 753 735 717 468 700 820 739 1090 988 1902 1230 202 168 148 454 477 625 1034 954 870 1070 1110 1118 877 780 707 624 470
1312 972 873 1195 1743 1864 2068 1970 1898 1748 1670 1642 1518 1448 1350 1113 1142 1048 977 934 1058 1119 1102 1118 1240 1260 1144 1142 1321 1473 1453 1532 1667 1739 1755 1693 1644 1511 1437 1361 1390 1330 1424 1749 1856 1642 1408 1383 1395 1409 1444 1319 1169 1117 937 809 747 577 586 583 688 530 1143 1113 1205 1409 1351 180 143 254 245 532 598 646 902 1022 1124 1150 1081 919 761 621 487 344 821
1183 1123 1560 1614 1539 2023 1974 1887 1798 1687 1552 1459 1241 1205 1249 1027 1036 1005 987 962 1024 962 919 898 817 868 860 1041 1493 1542 1532 1626 1679 1773 1834 1724 1620 1588 1560 1466 1370 1350 1413 1402 1435 1510 1454 1512 1510 1487 1444 1386 1200 972 894 783 708 606 326 453 439 602 443 791 1182 1275 318 292 322 276 533 572 371 516 793 950 1112 1323 1237 1245 834 491 322 736 840
1428 1412 1555 1408 1208 1796 1708 1807 1743 1524 1415 1215 1159 947 901 695 844 903 952 962 941 797 660 684 799 831 826 1093 1568 1944 1746 1727 1669 1787 1800 1695 1641 1510 1482 1357 1239 1199 1361 1634 1592 1571 1554 1516 1407 1456 1412 1250 981 893 702 714 574 542 354 436 209 732 350 935 1143 143 32 156 199 283 479 477 367 597 929 934 990 946 1017 1060 1159 1076 887 727 787
1396 1787 1632 1353 1781 1633 1670 1677 1650 1489 1196 1159 1049 930 875 757 777 673 762 758 809 717 750 715 914 835 876 1227 1778 2008 2049 1760 1976 1934 1691 1640 1569 1510 1422 1223 1190 1210 1203 1501 1617 1586 1530 1447 1290 1388 1190 1080 975 747 621 464 552 550 708 409 754 970 1004 1043 1089 317 343 314 317 273 204 189 521 806 1026 1018 923 906 914 1026 972 872 779 697 742
1412 1685 1566 1360 1180 1691 1652 1524 1413 1351 1174 1057 992 880 915 827 831 824 805 858 772 800 802 750 959 1148 1165 1302 1842 2004 2098 2082 1933 1760 1642 1524 1494 1413 1312 1207 1214 1251 1348 1338 1568 1435 1436 1442 1366 1305 1255 1056 898 747 565 444 559 468 592 697 673 749 801 1106 1006 33 179 236 239 216 234 312 573 1060 1071 960 865 844 885 838 801 733 651 592 570
1975 1848 1550 1316 1070 1485 1575 1435 1391 1242 1094 1142 972 961 975 880 916 864 795 937 832 901 1078 1109 1055 1046 1271 1330 1760 1920 1892 1897 1894 1756 1548 1446 1395 1422 1392 1052 981 1270 1386 1427 1416 1422 1352 1315 1391 1228 1186 1066 838 661 605 560 356 493 594 541 616 678 934 1180 1596 447 538 504 374 276 292 327 332 699 564 574 596 611 614 579 500 476 424 410 410
2272 1722 1489 1172 1120 1244 1516 1453 1383 1308 1291 1205 1120 1133 1053 1132 1125 981 880 776 821 1016 1149 960 1044 1195 1163 1255 1609 1802 1818 1697 1468 1585 1556 1476 1387 1436 1456 1132 974 1218 1344 1397 1387 1442 1464 1297 1248 1219 1090 955 764 601 503 553 373 397 602 293 712 920 1140 722 510 368 322 318 319 164 141 209 831 474 390 414 375 386 338 356 333 317 348 212 189
1866 1656 1415 1085 765 896 1135 1371 1300 1362 1368 1241 1226 1202 1141 1082 1060 931 1069 1049 1082 1150 1118 1189 1240 1208 1406 1508 1614 1591 1520 1478 1538 1609 1588 1467 1324 1430 1451 1204 1047 1165 1393 1422 1449 1428 1407 1374 1243 1131 986 839 785 647 469 451 330 383 266 533 549 879 1105 1535 451 403 349 292 278 290 173 217 638 412 457 439 342 261 174 211 214 225 195 158 120
1857 1743 1491 757 750 675 585 1155 1093 1256 1356 1336 1294 1256 1102 1218 1205 1182 1246 1127 1060 1004 992 1063 1146 1308 1583 1517 1538 1635 1569 1476 1522 1604 1562 1396 1316 1452 1476 1227 942 1062 1349 1388 1473 1488 1344 1400 1215 1102 1002 882 731 617 426 337 404 288 109 706 619 1328 1717 2385 459 476 476 367 299 195 135 142 399 400 369 333 290 294 233 211 161 114 108 113 114
1921 1714 1336 842 815 601 642 495 862 1078 1034 1320 1245 1172 1102 1257 1351 1311 1301 1167 1247 1185 1239 1282 1327 1713 1628 1512 1473 1414 1408 1507 1588 1575 1532 1436 1547 1439 1397 1317 1144 1285 1471 1492 1574 1608 1458 1374 1242 1037 955 834 614 476 372 242 189 306 308 465 1135 1485 1672 2348 461 583 569 476 359 218 137 454 481 207 224 511 388 266 118 69 167 190 89 141 307
1858 1577 1242 998 767 668 544 612 782 720 780 1012 1018 1103 1248 1299 1471 1328 1386 1394 1423 1451 1447 1560 1782 1709 1544 1485 1422 1434 1533 1594 1481 1531 1491 1373 1348 1381 1295 1337 1342 1444 1419 1409 1515 1558 1464 1378 1347 1074 834 686 519 380 282 168 177 433 348 779 1050 1471 1727 1363 405 295 312 243 155 98 175 668 670 420 404 348 238 188 139 59 48 55 60 172 119
1878 1687 1280 1075 753 734 573 563 618 602 844 846 1038 1079 1313 1344 1415 1571 1531 1331 1370 1642 1858 1987 1706 1604 1524 1420 1388 1648 1652 1462 1464 1488 1518 1407 1319 1185 1261 1323 1356 1326 1382 1449 1481 1475 1506 1337 1164 1008 841 606 490 326 198 179 289 252 272 772 925 1184 814 1252 452 382 289 188 111 56 354 360 320 287 290 154 123 36 0 6 164 108 69 64 52
1996 1786 1867 1416 947 711 835 738 703 732 566 738 1020 1169 1173 1391 1484 1675 1437 1292 1397 1579 1851 1906 1721 1569 1512 1555 1673 1569 1510 1454 1383 1145 1474 1400 1414 1428 1373 1367 1359 1258 1428 1483 1511 1386 1605 1336 1152 1012 792 535 408 331 252 191 313 437 689 612 668 709 948 369 471 355 234 224 205 199 476 218 184 99 42 65 23 22 99 90 64 63 18 0 1
1916 1806 1984 1817 1341 1130 1142 544 942 879 854 1077 1180 1313 1361 1190 1161 1383 1210 1400 1391 1446 1533 1458 1541 1539 1501 1524 1585 1519 1516 1474 1361 1112 1128 1078 1223 1407 1326 1391 1341 1226 1435 1395 1447 1448 1473 1336 1173 1024 726 513 383 161 245 335 354 482 590 696 753 825 1556 841 654 568 396 203 181 134 141 102 100 71 61 51 53 49 28 24 13 53 28 18 42
1954 1846 1765 1734 1552 1244 972 1054 1011 1128 1377 1415 1557 1429 1403 1337 1225 1247 1250 1338 1181 1156 1267 1333 968 1136 1020 1026 1360 1508 1597 1458 1446 1377 983 886 1131 1367 1326 1307 1266 1320 1381 1433 1385 1498 1367 1294 1190 960 788 613 365 48 31 243 401 552 620 722 846 1076 1081 815 467 576 271 105 57 118 80 88 84 53 49 55 43 28 44 29 21 9 8 6 5
1933 1863 1552 1627 1688 1412 1214 1493 1224 993 882 872 1106 1286 1452 1449 1198 1240 1193 1314 1134 1008 1047 1021 920 882 890 964 1154 1882 1884 1567 1429 1480 1160 1005 1415 1203 1330 1145 1281 1328 1395 1378 1412 1334 1404 1318 1233 1152 800 430 322 53 4 382 560 623 733 932 1163 981 902 476 391 300 380 101 44 72 45 54 80 77 59 48 32 46 26 11 15 2 13 4 5
1677 1715 1518 1772 1847 1475 1150 1108 903 790 793 832 1245 1254 1176 844 852 1132 1711 1178 1180 894 1054 1066 917 1128 1031 983 995 1472 1100 943 1032 1266 1203 1185 1294 968 1129 1038 1072 1207 1376 1265 1255 959 1249 1184 1127 1219 585 634 684 106 36 131 449 741 831 1100 1090 1266 483 478 423 264 55 41 74 136 54 49 26 14 30 45 28 6 8 13 2 2 14 10 7
1778 1534 1658 1799 1436 1336 1228 1130 1228 1064 1100 929 976 1528 1065 830 887 1254 1116 1130 934 1128 786 762 709 556 694 796 614 748 949 988 916 922 829 1059 880 584 710 680 1025 858 1244 1126 1232 1392 1276 1149 926 614 618 871 1092 627 118 105 537 1202 870 913 1094 868 593 471 424 474 156 25 51 34 30 22 24 31 40 27 0 1 4 4 1 2 1 1 0
1482 1530 1616 1615 1388 1497 1033 1142 1185 1313 919 914 1211 1091 1002 1158 1088 984 1058 1243 1067 767 1105 1059 1083 886 713 1000 837 788 1076 886 897 788 796 813 801 828 742 562 384 429 652 925 956 1659 1536 1289 784 556 726 975 1059 498 285 326 588 470 664 633 632 573 564 359 436 373 212 16 34 40 17 15 8 23 31 28 11 4 3 3 1 0 0 0 0
1405 1261 1291 1509 1171 1234 1138 960 1094 1067 1149 1303 1120 1235 942 1056 995 1296 1162 841 922 809 1180 900 984 1093 843 995 843 1063 1089 1050 917 924 1080 1137 1127 623 644 418 361 264 245 657 781 1350 1400 1406 866 608 668 864 900 735 511 289 810 458 301 455 623 363 782 300 344 319 111 13 19 35 18 16 23 19 9 2 1 0 0 0 4 3 2 1 0
1358 1087 1250 1364 1154 1162 1171 1196 1160 1194 1248 1238 1064 1080 1069 1116 1146 1008 1142 906 826 998 996 664 891 960 854 995 1125 1023 1122 1072 1322 1460 1273 1276 845 679 540 376 328 325 161 420 591 882 1007 1290 1114 870 830 895 615 502 414 401 680 727 496 600 720 694 583 273 288 207 181 142 20 57 17 0 0 0 0 1 0 0 0 0 0 1 0 1 0
1482 1320 1247 1317 1354 1291 1136 1167 1032 1296 1060 1095 1246 1189 1244 1146 1231 1211 1180 1222 1253 930 1111 990 1018 822 1065 1202 1223 1425 1435 1905 1953 1745 1097 1212 1556 1338 989 684 395 515 224 325 697 898 1140 1403 1421 1133 785 764 486 578 610 390 332 367 570 761 801 713 650 506 461 264 252 96 31 53 43 22 0 0 0 0 0 0 2 2 0 0 0 0 0
1330 1386 1325 1177 1000 1064 1092 1059 1130 953 970 1180 1219 1137 1357 1551 1640 1319 1057 1204 1058 974 1187 924 883 1108 1214 1098 1384 1382 1455 1692 1742 1595 1306 980 1343 993 930 805 223 599 219 244 645 1026 1146 1304 1454 1206 1075 920 632 306 299 444 277 246 630 700 718 670 558 663 435 193 131 40 30 38 48 18 4 0 0 0 5 4 3 0 0 0 0 0 0
1535 1441 1392 1051 954 972 1058 1024 1210 991 1220 1374 1377 1536 1122 1257 1204 1186 927 1431 1321 960 860 919 1097 1150 1024 957 1486 1326 1407 1688 1624 1368 1504 1503 1395 1260 1396 1280 1085 455 272 319 655 889 1244 1069 1255 1362 1408 1529 859 678 355 418 234 147 470 614 750 714 700 698 592 335 186 60 9 0 0 0 56 15 1 1 4 6 0 0 0 0 0 0 0
1959 1589 1407 1240 1157 1114 952 1064 1081 1184 1240 986 1124 1475 1499 1505 1400 1030 1389 1224 1214 1266 868 672 889 1317 1268 1275 1065 1332 1644 1793 1648 1227 1390 1516 1459 1337 1178 1266 1051 742 474 245 352 1037 1007 1133 1401 1444 1393 1164 1226 681 263 397 349 320 305 783 801 650 546 432 632 560 360 343 69 1 0 3 13 149 56 2 3 0 0 0 0 0 0 0 0
1849 1854 1767 1665 1468 1433 1296 1228 1170 1212 1251 1390 1402 1346 1557 1581 1672 1769 1714 1710 1540 1437 1127 906 1403 1505 1410 1381 1452 1572 1928 2021 1712 1662 1460 1331 1292 1289 1394 1206 1002 1154 1095 634 355 618 954 1026 1219 1088 1156 1083 1111 1346 859 723 395 574 680 568 916 699 734 419 582 678 441 233 168 23 4 0 1 0 0 0 0 0 0 0 0 0 0 1 11
2062 2239 2290 1867 1671 1598 1555 1339 1288 1329 1319 1431 1376 1611 1810 1682 1895 1765 1506 1529 1867 1960 1342 829 1135 1312 1732 1283 1346 1405 1857 1649 1579 1687 1691 1466 1249 1091 632 1098 841 581 615 865 564 209 320 1045 1343 986 793 738 597 1057 846 641 692 418 1202 822 746 761 692 786 813 581 536 588 536 484 260 112 2 0 0 0 0 0 0 0 0 2 6 41 94
2370 2341 2352 2217 2084 1774 1768 1579 1405 1500 1440 1450 1443 1794 1804 1999 2182 1968 2138 1993 1949 1614 1483 1428 1026 914 1571 1367 1207 1580 1513 1538 1491 1467 1517 1341 1310 1103 1188 1414 1235 1118 1010 1002 625 400 184 331 1063 1641 2088 855 826 958 949 813 956 1109 933 1203 901 925 791 798 686 449 666 458 458 456 588 449 229 1 55 0 0 0 0 0 0 7 134 186 150
2297 2272 2133 2025 2189 2008 1768 1637 1734 1691 1500 1686 1842 2038 2339 2189 2048 2037 2046 1958 1694 1268 1155 1099 1195 1116 1307 1415 1209 1216 1326 1265 1467 1454 1506 1487 1315 1258 1227 1163 1060 997 1015 724 691 321 262 392 759 1346 739 1439 800 775 800 1065 1099 480 408 1202 1190 893 771 1079 873 702 862 604 636 756 392 237 230 450 5 0 0 0 0 0 5 165 155 194 217
2030 1991 1843 2008 1907 1989 2068 1821 1818 1863 1880 1866 1826 2079 2156 2180 2081 2101 2148 1854 1642 1312 1100 1081 1140 1099 1218 1299 1296 1294 1288 1310 1466 1459 1684 1252 1150 1116 1142 957 1177 898 796 650 553 715 859 521 439 900 618 682 550 784 907 422 527 392 488 979 1314 980 995 1065 906 918 798 798 782 539 500 334 186 824 344 0 0 0 0 86 208 303 264 331 295
2016 1982 1966 1864 1672 1875 2001 1650 1654 1686 1792 1797 1690 1639 1871 1920 1896 1702 1561 1690 2123 1717 1934 1281 1322 1362 1129 1302 906 1100 1507 1430 1383 1309 1343 1334 1172 1303 1193 1116 1124 1120 717 604 604 677 834 994 848 533 507 360 706 746 367 282 1025 372 536 655 1080 1054 1004 1117 876 858 831 879 791 1238 693 889 788 704 747 490 188 10 67 64 178 144 283 308 178
2052 1994 1925 1778 1900 2029 1881 1914 1794 1752 1789 1790 1774 1756 1689 1717 1814 1944 1913 1520 1951 1806 1886 1668 1196 1000 922 1015 772 714 1195 1491 1360 1282 1328 1298 1239 1219 1224 1137 1091 828 715 846 730 682 741 1008 920 491 334 336 434 584 564 519 268 376 416 414 430 832 1115 1094 1046 1139 1051 881 763 620 534 476 665 568 418 408 476 547 179 149 146 31 187 223 154
2058 2128 1934 1772 1824 1762 1668 1664 1806 1810 1561 1694 1621 1598 1350 1485 1476 1654 1809 1672 1450 1593 1704 1791 1381 1369 1176 1025 991 890 1009 1057 1330 1191 1252 1318 1317 1194 1115 1002 985 746 640 690 718 741 778 1073 697 403 382 434 1162 948 568 449 257 216 267 314 518 516 555 1002 1042 853 879 816 1626 528 609 554 463 494 438 488 533 424 350 227 157 584 348 95 147
1768 1787 1771 1754 1765 1784 1736 1797 1765 1736 1826 1835 1729 1958 1713 1645 1632 1584 1728 1389 1751 1601 1667 1742 1819 1592 1279 1082 982 1031 1100 1271 1400 1265 1246 1286 1251 1071 1015 1127 1040 1014 845 823 879 762 756 792 498 536 769 458 555 706 410 471 198 303 264 480 422 390 646 922 928 1206 982 836 717 710 334 402 420 312 443 649 562 572 538 444 205 258 367 315 113
1590 1515 1549 1446 1461 1400 1519 1692 1688 1700 1666 1530 1498 1590 1688 1768 1651 1656 1667 1531 1234 1800 1255 1694 1919 1803 1527 1364 1243 932 889 1196 1245 1150 1140 1181 1273 1249 1170 1253 1154 1054 949 1057 997 1029 765 492 600 695 592 432 425 473 343 435 470 273 218 270 321 328 815 969 892 1090 1011 878 806 918 737 724 505 383 288 434 629 603 554 489 800 435 425 501 234
1112 1236 1174 1246 1286 1350 1280 1230 1387 1446 1493 1391 1319 1469 1380 1350 1558 1652 1811 1978 1761 1643 1679 1563 1877 1723 1771 1664 1422 1107 980 894 1114 1052 1094 1081 1165 1262 1317 1273 1219 1146 1096 1016 915 782 716 573 516 610 685 652 407 440 400 510 513 390 146 228 286 287 317 520 614 868 1014 852 1003 677 801 679 539 548 363 218 208 344 328 824 721 371 349 439 377
878 1138 1263 1309 1321 1418 1499 1446 1390 1409 1396 1335 1444 1310 1361 1385 1437 1530 1697 1946 2002 1828 1517 1650 1550 1354 1556 1671 1615 1268 1198 1167 1018 1106 1054 1038 1104 1166 1300 1296 1285 1275 1150 1112 935 689 561 509 678 825 711 517 492 526 517 442 506 668 345 278 302 104 194 874 652 798 755 754 774 842 757 553 508 421 498 378 380 365 253 393 326 392 646 457 392
1067 875 1174 1271 1294 1395 1415 1399 1350 1354 1389 1348 1474 1322 1583 1392 1464 1611 1686 1805 1607 1579 2051 1964 1988 1848 1761 1742 1736 1523 1461 1260 1207 1236 1151 1064 1096 1091 1239 1334 1487 1375 1139 953 919 756 648 431 538 648 502 401 395 488 545 681 540 325 336 296 462 189 125 311 499 382 903 626 684 752 434 477 612 326 344 481 327 328 214 172 423 394 516 493 359
1014 989 882 1073 1164 1252 1358 1372 1314 1414 1375 1323 1297 1605 1514 1461 1477 1462 1610 1794 1767 1697 1974 2097 1976 2028 2478 2038 2101 1851 1562 1498 1476 1355 1414 1297 1218 1172 1202 1301 1366 1445 1152 1071 926 777 600 513 541 392 398 418 125 298 370 417 636 516 467 529 351 728 334 134 268 511 330 558 606 444 393 544 432 298 359 486 383 396 350 269 299 353 537 470 467
951 1005 832 747 809 1014 1106 1216 1266 1359 1432 1438 1492 1620 1534 1582 1592 1650 1789 1761 1748 1701 1602 2008 1804 2038 2190 2147 2073 2008 1689 1574 1655 1513 1478 1396 1309 1284 1280 1288 1283 1384 1264 938 876 874 636 443 441 295 221 195 291 280 280 246 312 620 483 590 954 1016 873 677 743 609 599 301 407 343 514 491 407 369 406 365 382 311 492 134 258 448 563 400 396
863 850 775 486 585 601 653 514 601 664 662 783 780 1101 1322 1601 1700 1741 1788 1702 1667 1668 1701 1348 1673 1639 1620 1986 1992 1797 1705 1646 1558 1553 1614 1369 1317 1386 1326 1306 1170 1138 1258 1129 1013 983 714 506 465 466 433 283 386 355 392 209 234 708 735 1011 994 801 835 812 905 480 316 206 203 430 377 403 433 434 435 378 340 368 482 284 179 175 476 399 295
928 878 708 426 211 154 240 275 331 266 347 492 515 724 841 1004 1335 1604 1626 1684 1682 1862 1875 1663 1458 1641 1629 1819 1406 1488 1593 1485 1425 1451 1008 1048 955 1138 1187 1238 1250 1141 1152 1068 1070 1012 990 681 520 611 807 697 921 964 844 786 752 862 1027 1002 660 800 820 732 560 452 259 263 221 125 356 432 334 319 506 366 339 237 255 380 127 282 444 440 268
740 672 583 443 322 346 272 266 267 230 168 156 316 368 518 603 719 802 1065 1299 1368 1538 1578 1898 1660 1526 1338 1151 1438 1324 1436 1045 1231 1258 1129 798 1018 865 884 827 837 1026 1140 998 854 889 908 996 716 687 935 1013 1052 1096 833 771 809 777 1016 1020 841 743 545 332 304 237 218 193 144 172 14 246 417 412 433 570 334 269 236 117 227 69 240 419 326
Wind_Speed
30 30 26 30 30 29 28 29 29 29 29 29 29 29 29 29 29 30 29 28 27 27 27 27 28 28 28 29 29 29 29 27 27 28 28 27 25 25 25 24 24 25 25 25 24 22 21 20 19 19 18 17 16 15 16 15 15 15 13 15 16 17 18 19 19 20 20 20 19 18 16 14 13 12 12 14 14 13 12 13 11 8 5 9 14
29 28 24 27 28 26 27 28 29 29 29 29 29 29 29 29 29 29 28 28 27 27 28 28 29 29 30 29 29 30 30 29 28 29 28 27 26 24 24 24 23 24 24 24 23 21 20 20 19 19 18 17 16 16 15 14 14 13 13 13 14 15 16 16 18 18 20 21 21 20 18 17 14 14 14 14 15 14 13 13 14 8 5 12 13
28 27 23 26 29 26 26 27 28 29 29 29 29 29 29 29 28 28 29 28 28 28 29 29 30 31 31 30 30 31 32 31 30 28 28 27 26 25 24 24 24 23 24 24 23 21 20 20 19 19 17 17 17 17 16 15 13 12 11 11 12 11 13 14 16 17 18 21 21 21 19 17 16 15 14 14 15 15 15 15 15 13 8 14 13
27 25 23 24 25 25 26 28 29 29 29 30 29 28 28 28 29 28 29 29 29 29 30 30 31 33 32 31 32 32 32 31 30 29 29 28 27 26 25 25 25 25 25 25 24 22 20 20 20 19 18 17 17 17 16 15 13 11 9 9 8 8 10 12 12 14 17 21 20 16 9 7 10 15 15 14 15 15 15 15 16 16 15 14 16
28 24 22 21 22 23 26 28 27 30 29 29 29 29 29 29 29 28 29 30 30 30 30 30 33 33 33 33 33 32 32 31 30 30 28 28 28 27 27 27 27 27 26 26 24 23 21 20 20 19 17 17 16 16 15 14 13 11 9 7 7 8 7 9 9 11 11 16 14 12 10 9 7 12 13 14 14 15 15 15 16 16 17 17 16
25 23 20 20 21 22 25 26 28 29 29 30 29 29 29 29 30 29 30 31 31 31 31 32 34 34 34 34 34 33 32 31 30 29 28 28 28 28 29 29 28 28 26 26 25 23 21 21 20 19 18 17 16 15 14 12 12 11 8 8 8 8 8 8 11 10 13 11 9 3 9 8 7 8 14 13 14 14 15 15 15 15 17 17 16
25 19 20 20 19 22 23 26 29 29 29 29 29 29 29 30 30 30 31 32 32 32 32 32 34 33 34 34 33 33 33 32 31 30 29 29 29 29 31 30 29 28 27 27 26 24 22 20 19 18 17 17 16 15 14 13 11 9 9 8 9 10 9 8 8 9 12 10 7 5 6 8 7 7 12 13 13 14 15 15 15 16 18 16 16
20 18 19 19 20 21 23 25 28 28 28 29 28 29 29 31 31 31 32 33 34 33 33 33 34 34 35 35 33 33 33 32 33 32 31 31 31 31 31 31 30 28 28 28 28 25 21 20 18 17 16 16 16 15 14 12 10 10 10 11 9 7 8 9 9 9 9 9 5 5 6 8 8 7 10 12 14 16 17 16 15 15 16 17 16
19 19 20 20 21 24 23 25 26 29 28 28 29 29 30 32 32 32 33 35 35 34 33 34 35 36 36 35 35 33 33 33 34 34 33 32 32 32 31 31 30 28 26 24 22 22 21 19 18 16 15 16 16 14 13 11 10 8 9 9 9 8 9 10 12 13 9 2 5 8 9 9 8 7 11 15 17 17 17 15 14 16 17 16 17
17 18 21 19 20 21 23 24 26 28 28 29 29 30 31 32 33 34 35 36 35 34 34 35 35 35 35 34 34 33 34 34 35 35 34 33 33 33 31 30 30 29 26 26 25 23 19 18 18 16 15 15 16 15 13 11 10 9 7 7 6 8 8 10 11 12 5 6 8 7 7 11 8 8 12 15 18 20 18 19 16 15 14 18 18
17 18 20 21 23 20 22 23 25 27 29 29 29 30 31 33 34 34 35 36 35 35 34 34 33 33 32 33 32 32 34 35 35 36 35 34 33 32 30 29 28 27 26 25 25 23 20 18 17 16 15 15 15 15 12 12 10 9 7 6 4 6 8 10 11 5 nan 7 7 7 9 12 7 7 14 16 18 19 18 18 18 18 18 18 18
19 20 19 20 25 21 21 23 25 25 28 28 29 30 31 32 33 34 34 34 34 34 33 32 31 31 32 31 31 31 32 34 36 36 36 35 33 31 29 27 26 27 26 26 25 22 20 19 18 17 16 15 16 15 13 11 9 8 6 3 4 7 10 14 9 6 5 7 6 6 7 8 10 12 17 17 18 18 18 18 18 19 18 18 18
19 20 19 21 23 21 22 23 25 26 27 28 29 30 31 32 33 34 33 31 32 32 31 31 29 29 29 30 31 30 32 35 35 35 35 35 33 31 28 27 27 27 26 26 26 24 21 20 19 17 16 16 15 15 14 10 8 6 5 2 3 6 10 14 11 nan 7 8 7 7 7 6 9 16 17 18 18 18 17 18 18 19 18 17 17
19 20 19 20 21 25 23 24 24 26 27 28 28 28 30 32 33 33 32 31 31 30 28 29 29 28 28 30 30 30 32 34 34 34 33 33 32 29 27 27 27 27 26 27 27 25 23 21 18 16 15 16 15 15 13 11 8 6 4 2 1 4 8 12 5 8 8 7 6 8 7 5 6 10 14 15 16 16 16 16 17 18 18 17 17
19 19 19 19 22 22 26 23 24 24 26 26 26 27 29 30 31 31 32 33 32 29 28 29 29 27 28 31 31 30 30 33 34 33 32 31 31 29 27 26 26 26 26 26 27 25 23 21 19 17 15 15 15 14 13 10 9 6 3 3 1 4 7 6 1 7 8 8 8 9 7 8 8 12 13 14 14 15 15 15 16 17 18 18 17
19 19 20 19 22 21 22 24 24 25 24 25 25 27 29 29 29 30 30 30 30 29 28 27 26 26 27 29 29 29 31 33 33 32 30 30 30 28 26 25 25 25 24 25 26 25 23 22 20 18 16 15 15 13 12 11 8 7 3 3 2 4 6 5 1 8 7 7 7 7 7 7 11 12 14 15 15 15 15 16 16 17 18 19 19
19 21 20 21 23 22 22 22 24 26 24 24 25 27 28 27 27 27 26 27 29 29 28 26 25 25 28 28 27 27 29 32 32 31 30 28 29 28 26 24 25 25 24 24 25 24 23 23 21 20 19 17 15 14 13 11 10 8 6 5 4 2 4 6 6 8 8 9 10 9 8 8 11 13 14 15 16 16 16 17 17 18 18 18 19
18 20 21 21 22 22 23 23 24 22 22 23 24 26 27 27 26 25 25 26 27 27 26 25 24 27 29 28 27 27 28 30 31 30 30 28 26 27 26 24 24 24 22 23 24 24 23 22 22 21 20 19 17 16 14 13 11 11 9 5 2 2 5 7 8 9 9 10 9 9 9 12 14 15 16 17 17 18 17 nan 18 18 nan 19 19
18 20 20 21 21 22 23 23 23 21 22 21 22 25 27 26 25 24 24 25 26 26 27 25 26 27 27 27 26 26 27 29 30 31 30 28 27 25 26 24 23 24 22 21 23 24 23 22 22 21 20 20 19 17 16 14 13 10 8 5 3 0 4 1 9 11 12 9 10 nan 9 12 15 17 17 18 19 19 18 nan nan nan nan 19 19
17 17 18 19 21 22 22 23 23 22 23 23 24 25 26 26 24 23 23 24 25 26 26 27 28 27 26 25 24 24 25 26 30 29 31 29 26 24 25 24 23 23 22 20 22 23 23 22 22 21 21 21 20 19 17 15 12 11 9 6 5 2 4 6 16 14 12 11 12 nan 12 16 17 17 17 18 19 nan nan nan 20 19 nan nan nan
16 16 16 17 22 23 24 24 23 25 25 26 25 25 24 26 25 24 23 23 23 25 26 26 27 24 23 21 20 20 20 22 25 26 30 27 26 23 24 24 23 23 22 21 21 22 22 22 21 21 22 22 20 19 17 15 14 12 11 9 6 8 8 12 14 14 13 13 13 13 16 17 17 nan nan nan nan nan nan nan nan nan nan nan nan
18 15 16 18 20 22 26 27 25 27 25 25 24 22 23 25 24 23 20 21 21 23 23 23 24 22 19 19 18 18 19 21 21 25 25 26 25 25 23 23 22 22 22 21 20 21 21 21 21 21 22 22 21 15 14 15 15 15 14 12 10 11 10 13 14 14 15 14 14 15 18 17 17 nan nan nan nan nan nan nan nan nan nan nan nan
17 18 18 20 19 21 27 29 29 29 27 26 23 22 24 22 23 21 20 21 22 20 20 20 21 20 18 17 16 16 19 20 19 24 22 26 25 27 23 21 21 21 22 22 20 20 20 20 21 21 22 24 17 nan nan 15 15 17 16 14 14 12 11 15 15 13 14 15 nan 19 nan nan nan nan nan nan nan nan nan nan nan nan nan nan nan
19 20 22 20 21 23 29 30 29 29 27 24 21 18 21 23 22 19 19 22 22 18 17 19 20 18 18 15 14 14 17 20 18 21 21 23 25 27 24 20 20 20 22 21 20 19 20 20 19 20 18 16 13 nan nan 16 16 17 16 16 14 14 13 14 15 14 14 17 nan nan nan nan nan nan nan nan nan nan nan nan nan nan nan nan nan
20 22 23 21 24 28 32 27 29 28 23 24 18 14 20 24 18 16 17 22 22 18 17 20 18 16 15 14 15 20 22 18 19 17 21 21 22 22 22 19 17 17 20 18 18 18 16 16 14 15 12 14 12 16 nan 17 17 17 18 16 16 14 13 14 16 15 nan nan nan 19 nan nan nan nan nan nan nan nan nan nan nan nan nan nan nan
24 27 25 25 29 29 30 26 28 24 23 20 16 18 25 26 20 19 19 20 18 16 21 24 22 19 14 15 26 19 21 21 20 15 17 20 23 21 21 20 18 16 17 15 18 19 15 15 15 14 12 12 12 13 18 17 16 17 18 17 14 14 14 13 15 17 15 nan nan nan nan nan nan nan nan nan nan nan nan nan nan nan nan nan nan
28 32 27 27 27 23 27 27 22 23 25 23 20 20 23 23 21 20 19 20 18 15 21 25 22 19 14 16 23 15 18 26 22 17 18 16 20 24 21 18 19 18 17 12 17 21 16 16 14 13 11 12 12 14 17 16 15 18 17 16 14 14 15 13 16 18 17 nan nan nan nan nan nan nan nan nan nan nan nan nan nan nan nan nan nan
35 32 25 18 18 22 28 29 24 25 28 23 20 20 20 21 20 20 17 17 16 14 20 22 20 13 8 15 21 16 19 24 22 21 22 24 20 21 22 21 18 18 19 10 14 19 16 16 15 12 11 10 11 12 15 15 14 17 17 16 13 14 13 14 17 18 19 nan nan nan nan nan nan nan nan nan nan nan nan nan nan nan nan nan nan
37 31 20 19 19 23 23 22 22 22 21 19 22 24 21 18 20 18 16 17 15 16 21 20 19 16 11 14 22 21 19 24 25 26 24 23 23 21 18 19 22 19 19 13 12 18 16 15 15 13 11 11 10 13 12 14 12 15 15 16 14 13 12 16 16 16 19 19 nan nan nan nan nan nan nan nan nan nan nan nan nan nan nan nan nan
32 30 27 23 25 25 24 24 26 22 23 26 29 26 18 16 19 18 17 18 19 18 19 20 20 19 17 15 19 21 21 21 22 23 24 20 21 21 21 17 19 23 20 15 11 17 17 14 15 13 11 11 11 12 13 14 12 12 13 15 15 14 12 12 13 14 17 nan nan nan nan nan nan nan nan nan nan nan nan nan nan nan nan nan nan
31 32 28 24 23 24 26 27 26 26 28 31 30 25 22 23 24 21 19 20 22 20 19 19 21 21 21 17 17 20 21 23 23 25 25 22 20 20 22 24 19 18 21 17 12 17 18 16 13 13 11 11 12 11 13 14 12 12 13 15 14 16 14 13 12 16 15 nan nan nan nan nan nan nan nan nan nan nan nan nan nan nan nan nan nan
31 32 30 25 23 26 26 26 24 24 24 24 24 24 23 24 23 21 19 19 22 22 21 18 22 23 23 19 19 19 23 25 26 28 28 26 22 20 22 23 21 27 18 15 15 16 18 18 14 13 10 11 11 10 12 15 11 11 15 14 14 16 17 14 14 17 16 nan nan nan nan nan nan nan nan nan nan nan nan nan nan nan nan nan nan
28 30 30 28 27 26 25 25 23 24 25 25 23 22 21 22 21 19 18 19 21 23 23 16 18 25 23 22 25 23 26 27 28 27 29 28 27 23 20 21 20 22 22 17 12 16 19 18 16 13 11 14 11 14 11 13 13 11 13 15 12 16 17 17 16 17 15 16 nan nan nan nan nan 15 nan nan nan nan nan nan nan nan nan nan nan
29 29 30 29 27 25 23 23 25 25 26 23 21 19 18 17 17 18 17 19 21 23 26 24 18 22 23 23 24 25 28 28 28 30 30 30 30 27 22 19 19 22 21 18 16 15 17 19 17 14 13 12 11 13 12 13 13 14 13 15 12 13 16 17 18 16 16 14 16 nan nan nan nan nan nan nan nan nan nan nan nan nan nan nan nan
29 30 30 29 27 24 21 21 24 26 25 21 19 16 16 16 16 16 17 18 21 22 25 23 20 20 24 26 25 21 24 27 29 30 31 32 32 31 25 23 22 22 23 21 22 16 16 18 19 15 15 14 11 13 12 12 14 14 17 15 12 14 14 17 16 16 14 15 14 13 15 15 nan nan nan nan nan nan nan nan nan nan nan nan nan
29 28 28 27 27 25 22 23 23 21 20 18 17 16 15 12 11 13 16 18 22 23 23 27 21 19 24 27 27 27 26 27 28 31 30 30 32 33 30 24 21 22 22 21 23 21 20 20 15 16 16 16 12 13 11 13 14 16 15 16 15 15 15 17 15 15 15 14 14 13 11 12 15 nan nan nan nan nan nan nan nan nan 17 17 16
28 28 26 24 25 25 21 23 23 20 18 18 18 16 11 9 8 10 15 17 23 23 23 26 24 22 27 28 27 28 27 27 29 31 32 31 31 32 32 28 24 23 23 24 24 22 22 23 17 16 21 16 13 12 14 15 15 17 12 18 18 17 16 15 15 15 16 12 15 12 12 12 10 16 nan nan nan nan nan nan nan 17 17 16 17
28 28 24 22 23 22 23 21 20 19 18 17 16 12 9 9 11 13 15 20 18 23 27 26 27 24 27 28 26 28 27 29 31 32 31 31 32 31 29 28 27 24 25 24 24 25 24 23 20 18 22 16 13 13 13 15 19 17 12 16 20 19 16 16 13 15 15 13 13 12 10 12 12 12 14 nan nan nan nan nan 18 16 16 16 15
26 26 24 23 22 21 23 23 21 19 17 15 13 10 11 10 10 13 16 15 15 18 20 23 26 26 24 27 27 24 25 27 30 30 31 30 32 32 30 28 26 25 25 24 24 26 24 22 22 20 23 15 13 13 14 13 19 17 16 15 17 19 17 15 13 14 15 14 12 13 12 12 13 13 12 13 14 nan nan nan 12 11 12 18 16
26 24 24 21 21 22 24 23 22 19 17 14 14 13 13 11 8 11 15 15 17 18 20 23 27 25 22 25 29 26 23 25 27 29 31 29 29 31 30 29 27 25 25 25 26 27 26 23 21 22 21 19 17 10 16 21 19 14 18 21 16 15 16 16 14 14 15 12 13 13 13 11 12 13 13 13 12 11 13 13 12 nan 11 14 17
27 25 25 24 23 24 22 23 21 18 15 14 14 13 14 14 14 12 16 18 16 19 22 26 27 26 26 27 29 28 24 23 25 28 30 30 31 31 29 29 28 27 25 24 26 26 26 23 21 23 24 23 19 20 24 27 21 15 22 20 17 14 12 15 15 15 14 12 12 14 12 14 13 14 12 12 12 11 10 11 11 11 11 nan 11
27 27 26 25 24 24 24 21 19 19 18 16 15 17 14 18 17 17 19 20 18 20 25 25 28 27 26 27 28 28 25 23 24 26 27 28 30 30 29 28 28 27 26 25 25 25 26 25 24 24 25 25 20 23 23 27 22 19 18 18 17 13 15 14 15 14 14 12 11 13 12 13 13 12 13 12 12 12 11 11 10 10 9 9 8
26 26 25 26 25 24 23 21 19 18 19 18 15 16 16 18 19 19 20 18 18 20 22 28 30 30 28 28 28 28 27 25 25 26 26 25 25 28 29 29 27 27 26 25 25 25 26 27 24 24 25 27 22 21 23 24 23 24 19 18 17 15 16 16 16 13 13 12 11 10 13 13 12 12 13 14 13 11 9 9 9 8 10 8 8
27 26 25 25 24 23 21 21 20 19 18 18 16 16 18 18 19 19 18 17 18 20 22 26 29 31 32 29 29 29 30 28 27 27 28 26 26 26 27 29 28 27 26 26 25 25 28 28 26 25 26 27 26 22 26 24 22 23 20 18 20 19 15 14 15 13 13 13 12 10 12 13 13 10 12 12 13 13 10 11 10 8 9 8 8
28 28 26 24 22 24 23 22 21 19 19 18 18 17 19 18 19 17 17 18 19 21 23 24 26 29 31 32 30 30 30 31 29 27 28 27 27 27 28 28 27 26 26 27 25 25 26 28 29 28 28 27 25 25 27 26 19 19 22 23 22 19 16 20 17 15 16 13 11 11 12 12 13 12 10 12 11 13 12 12 10 10 9 9 8
28 26 26 25 24 23 23 22 21 19 18 18 18 18 18 18 18 17 18 18 17 22 24 25 28 29 30 33 32 31 30 30 31 29 29 29 27 27 28 28 26 26 26 27 27 25 26 27 28 29 29 27 26 25 27 26 22 20 19 20 22 21 20 21 20 15 17 14 12 12 11 10 13 11 8 12 12 11 12 12 11 11 10 9 10
26 24 24 24 24 23 21 21 20 19 18 17 18 17 17 18 18 18 17 17 17 21 25 27 26 28 32 33 33 33 31 30 30 30 32 30 28 27 27 27 27 26 26 27 28 27 26 27 28 28 27 28 27 24 25 26 26 23 21 20 22 21 22 25 20 19 16 17 14 12 10 10 13 11 8 11 12 12 11 12 13 12 11 10 11
26 24 23 23 22 21 21 20 20 19 19 19 20 19 17 17 17 17 17 17 19 21 26 26 29 28 29 32 34 35 34 32 32 33 33 33 33 29 27 27 27 27 28 28 28 27 26 27 28 27 27 26 27 27 26 27 25 24 25 23 21 21 20 21 22 20 20 18 14 12 11 9 11 12 10 12 12 14 13 13 13 12 12 11 11
26 23 23 22 21 20 20 21 20 19 20 19 20 20 18 17 16 17 17 19 19 23 28 28 29 30 28 31 31 32 35 35 34 35 35 35 36 34 29 27 27 26 27 27 28 28 27 27 27 27 25 23 25 26 27 25 22 23 27 23 23 22 21 21 23 23 21 19 14 14 14 12 11 11 11 12 13 15 15 14 14 13 12 12 13
24 23 22 22 22 21 21 22 21 19 19 20 19 20 20 19 19 19 19 20 20 23 27 30 30 30 29 31 32 30 32 33 33 34 33 32 33 34 32 28 27 27 26 26 27 27 26 25 25 25 25 24 24 25 25 25 24 23 25 25 24 24 23 23 23 23 22 19 17 19 15 15 12 11 14 14 14 16 15 15 14 14 15 12 14
23 24 23 22 22 22 20 22 22 19 19 19 20 20 20 21 21 21 20 21 22 23 25 29 33 33 31 31 32 32 33 32 32 32 33 32 33 31 29 26 24 25 24 24 25 27 25 24 24 24 23 24 24 24 23 24 25 23 22 23 23 24 24 22 23 24 23 22 21 19 nan 10 13 14 14 16 14 16 16 14 16 nan 16 13 12
Wind_Direction
287 289 293 294 299 300 301 303 303 303 302 304 306 310 312 314 314 314 314 316 321 320 319 319 321 322 322 321 321 319 318 316 314 312 313 316 315 314 316 315 315 315 313 310 307 305 304 301 301 301 301 301 299 297 294 296 299 303 304 305 309 311 312 311 311 306 298 291 284 277 272 268 262 256 252 248 248 250 266 268 264 266 264 267 258
290 289 295 297 295 297 301 302 303 304 305 306 307 311 313 314 314 314 316 318 320 320 321 322 323 320 319 320 320 319 318 319 316 313 316 319 318 315 316 316 317 318 317 315 311 309 308 307 305 305 304 303 304 301 299 298 302 306 308 312 314 319 317 315 312 311 304 297 289 282 276 271 263 258 256 255 255 259 260 265 267 274 280 261 260
289 289 295 298 296 298 299 302 303 306 307 306 310 311 314 314 314 316 317 318 319 322 324 324 323 319 319 319 320 320 319 319 319 318 319 317 318 319 318 317 319 320 317 316 315 313 311 309 307 307 305 306 306 306 305 303 304 308 314 315 317 322 328 325 322 319 313 304 295 286 278 273 269 264 260 259 260 260 261 265 268 270 279 269 266
287 287 292 295 292 297 299 302 306 308 308 309 310 312 315 315 315 317 317 318 322 325 326 326 321 320 319 319 319 318 319 320 321 322 319 320 318 319 321 321 323 321 319 318 317 316 315 311 309 305 307 308 308 306 305 305 305 312 313 317 324 332 345 340 339 330 328 317 311 295 293 285 273 267 268 267 267 268 271 272 272 273 275 274 271
285 289 294 295 300 298 303 305 307 310 310 309 312 315 316 316 317 318 319 320 325 326 326 324 320 320 320 319 319 319 321 322 320 318 318 319 320 323 323 322 322 320 321 320 320 319 316 312 308 308 309 309 308 306 306 309 311 315 322 335 350 19 1 353 350 347 347 351 308 296 302 294 290 271 275 277 277 278 279 279 276 275 271 267 265
286 289 296 299 302 303 302 305 311 312 311 314 316 317 318 318 319 321 322 324 325 327 325 323 320 320 320 319 318 320 321 320 318 317 318 321 324 325 323 323 323 321 321 320 321 320 317 313 311 311 310 311 308 307 305 307 314 323 338 351 23 31 37 13 14 17 27 29 58 34 297 298 291 282 273 274 273 271 272 273 272 272 272 268 266
284 290 296 302 301 307 306 309 314 313 315 316 319 319 319 320 321 323 324 325 326 327 325 322 321 320 318 317 318 318 319 318 315 314 318 324 323 324 323 322 321 321 321 322 323 322 318 314 313 313 314 312 308 304 308 312 320 331 346 10 29 54 53 59 34 36 35 34 52 2 301 296 299 291 277 286 287 281 276 278 279 275 272 271 269
286 296 300 304 303 308 311 313 314 315 318 319 320 321 321 322 323 325 324 325 328 327 325 323 321 320 318 317 317 318 320 319 315 313 319 322 322 322 322 322 322 322 323 325 327 325 320 315 314 311 312 309 307 309 312 317 323 340 2 14 50 67 81 73 76 73 48 50 332 295 300 291 287 296 279 280 283 286 280 272 267 266 268 269 271
295 305 301 297 303 312 313 317 319 321 323 322 324 324 324 326 325 327 326 328 327 327 326 323 322 320 318 316 318 319 320 318 315 315 318 320 321 321 322 321 322 324 327 330 327 323 321 318 317 315 312 311 310 311 313 321 329 346 7 28 49 79 114 123 124 125 88 331 306 315 304 296 302 296 283 282 276 272 277 278 272 270 273 273 266
302 298 292 295 309 314 315 317 321 323 325 326 326 326 326 328 329 328 327 328 327 325 325 322 320 318 317 314 315 318 320 318 315 315 317 320 321 321 322 323 324 325 326 326 326 324 324 325 322 319 314 312 314 315 323 328 333 346 11 35 60 101 109 122 126 108 291 286 261 262 280 288 291 291 281 279 274 269 272 276 284 284 285 273 271
300 292 295 304 314 315 317 318 320 324 326 327 328 330 331 331 330 328 327 327 325 324 323 321 319 316 313 312 310 312 319 318 316 315 317 319 322 322 321 321 324 327 328 330 330 327 328 330 326 321 315 315 321 324 334 337 336 343 357 29 44 102 113 121 127 51 nan 302 310 307 294 289 304 303 283 278 274 273 271 274 276 275 272 274 272
299 285 298 301 309 314 318 319 321 323 327 327 329 329 329 330 329 327 326 324 322 321 320 318 316 314 310 308 308 310 315 315 313 316 319 320 322 322 321 320 323 326 330 331 327 323 322 324 325 322 322 323 325 329 338 341 336 336 342 26 80 130 128 131 114 60 300 291 299 311 307 303 301 298 287 282 280 280 276 275 274 273 273 273 272
303 296 297 304 313 314 318 321 322 323 325 327 328 327 327 327 325 324 323 320 319 317 318 315 311 309 308 307 307 308 311 311 313 316 319 322 323 322 322 322 322 328 330 331 326 323 320 321 324 325 325 324 325 333 340 340 341 326 340 13 115 135 134 121 97 nan 320 317 320 306 302 323 317 305 297 291 287 285 283 281 280 278 275 275 275
286 293 301 307 311 320 318 320 320 322 323 325 325 325 326 325 324 323 321 319 317 316 313 310 309 308 306 306 306 307 310 310 311 314 318 321 323 322 324 323 324 328 331 330 327 324 323 324 325 326 327 324 325 335 340 340 334 333 317 356 104 114 128 120 23 277 289 295 299 300 313 333 326 295 293 294 292 293 292 289 286 284 281 281 280
293 298 303 309 312 320 321 318 318 320 319 320 321 323 324 322 322 322 321 321 317 313 309 309 307 305 305 305 304 306 306 308 313 315 317 319 323 324 324 325 327 328 330 330 329 328 324 324 326 324 325 324 324 331 338 337 332 318 303 346 88 127 143 139 197 297 299 312 319 311 322 332 310 308 305 298 298 296 294 292 292 290 289 285 286
296 300 303 311 314 318 317 318 316 316 318 319 319 321 321 320 320 321 320 316 311 307 306 304 302 301 297 298 301 305 309 310 312 314 317 320 323 325 326 328 330 329 330 332 329 329 326 323 325 326 324 322 324 330 333 334 323 319 333 315 50 117 123 128 285 287 302 312 311 316 326 335 324 310 304 301 299 298 296 293 291 290 288 286 285
299 302 307 313 313 317 316 316 317 318 315 314 315 317 318 315 315 315 313 308 305 304 303 301 297 293 292 297 300 305 310 311 312 313 316 319 323 325 329 331 331 330 330 332 330 328 326 325 326 326 323 322 323 327 330 326 325 330 342 13 24 70 119 127 323 308 317 322 329 331 338 339 311 310 307 305 300 297 294 294 295 293 287 285 285
299 303 310 314 313 317 312 315 315 313 312 307 310 313 314 309 308 309 306 304 300 301 298 295 293 290 294 297 302 307 309 311 312 311 313 318 322 328 331 333 331 329 331 331 331 329 327 327 327 326 324 323 324 324 325 328 338 350 1 1 359 119 158 176 286 281 284 287 297 309 328 332 327 318 305 296 299 298 300 nan 291 290 nan 285 282
296 301 310 315 313 311 312 308 310 306 307 308 307 307 309 306 307 307 302 300 298 296 297 294 294 295 297 301 306 307 309 311 313 311 312 317 325 328 332 333 330 327 330 331 330 330 329 329 327 325 326 326 324 324 326 331 343 351 342 346 349 202 149 191 312 295 289 298 306 nan 329 325 307 306 308 305 299 298 298 nan nan nan nan 286 286
288 299 307 310 310 308 306 303 305 302 300 303 302 304 307 307 303 299 298 297 295 292 288 291 296 297 300 304 307 306 308 309 312 310 312 318 323 332 333 333 329 326 328 332 331 330 330 331 329 326 325 327 326 326 328 333 335 342 348 346 349 26 349 334 283 289 296 301 306 nan 312 307 305 304 303 308 302 nan nan nan 293 295 nan nan nan
284 297 300 305 309 306 300 295 298 295 298 295 293 298 304 302 295 292 296 294 293 290 286 291 293 296 298 300 300 301 302 301 306 309 312 313 323 327 332 329 327 324 325 329 331 332 331 330 330 328 326 326 328 325 325 327 339 341 349 352 3 343 1 309 303 306 311 311 314 319 319 308 307 nan nan nan nan nan nan nan nan nan nan nan nan
291 293 292 298 302 298 295 293 289 289 288 283 283 287 295 296 292 291 296 293 293 294 289 294 298 292 296 293 294 296 299 298 304 304 306 310 317 319 327 327 323 323 323 327 330 333 332 330 332 331 327 327 329 323 321 331 340 349 348 358 351 351 348 307 308 307 305 311 313 317 313 314 311 nan nan nan nan nan nan nan nan nan nan nan nan
294 285 279 286 290 291 289 284 281 278 277 274 276 281 288 286 286 288 292 295 293 298 295 296 294 292 292 293 292 296 300 295 298 297 304 305 306 314 319 324 321 320 322 324 327 331 333 333 335 334 330 332 331 nan nan 325 334 350 351 346 349 2 323 297 292 301 304 311 nan 316 nan nan nan nan nan nan nan nan nan nan nan nan nan nan nan
292 283 286 287 285 283 272 268 265 265 256 250 248 266 290 286 279 288 291 291 295 300 304 297 288 286 284 290 288 288 288 284 301 304 298 295 295 308 312 319 320 318 321 319 322 325 333 337 338 336 333 334 327 nan nan 323 328 330 336 343 352 340 324 305 300 301 311 310 nan nan nan nan nan nan nan nan nan nan nan nan nan nan nan nan nan
284 284 282 283 280 268 267 264 261 257 263 269 272 276 288 279 272 278 285 301 299 306 309 291 274 269 283 294 292 265 256 250 252 269 277 285 287 292 297 305 310 311 320 314 313 314 322 328 326 332 334 340 339 321 nan 321 326 331 335 344 342 335 311 304 303 297 nan nan nan 321 nan nan nan nan nan nan nan nan nan nan nan nan nan nan nan
283 277 267 269 261 261 262 264 265 268 271 295 309 306 295 301 308 300 295 291 286 290 288 277 275 265 247 275 267 261 278 274 271 254 264 283 286 288 290 298 307 311 314 313 314 305 315 321 323 329 336 342 343 324 319 320 332 330 323 326 332 326 321 305 299 298 304 nan nan nan nan nan nan nan nan nan nan nan nan nan nan nan nan nan nan
269 256 248 253 258 262 273 273 296 303 314 318 315 310 304 309 313 307 301 303 303 290 282 281 274 261 241 269 280 284 297 296 303 286 286 275 275 288 290 292 302 307 311 314 311 305 310 313 316 321 331 342 347 319 311 318 322 318 322 326 337 328 310 310 301 304 310 nan nan nan nan nan nan nan nan nan nan nan nan nan nan nan nan nan nan
263 268 269 284 302 305 305 314 315 319 312 317 306 305 305 306 314 313 307 308 310 291 279 289 296 287 278 284 295 299 302 302 307 305 303 288 267 277 293 294 300 303 306 314 305 303 305 305 309 314 326 330 326 313 306 311 321 315 327 330 321 314 322 311 304 309 312 nan nan nan nan nan nan nan nan nan nan nan nan nan nan nan nan nan nan
267 286 307 308 308 296 298 304 305 302 297 300 304 313 311 314 328 328 322 326 313 294 291 299 317 319 299 294 298 309 310 310 315 313 301 287 277 282 274 286 304 304 302 306 301 298 298 296 304 308 309 308 315 307 313 306 315 313 318 314 315 309 299 299 304 311 308 310 nan nan nan nan nan nan nan nan nan nan nan nan nan nan nan nan nan
277 285 292 297 292 291 295 297 301 304 311 317 322 319 312 323 332 329 321 318 312 304 304 313 315 314 306 306 312 305 313 317 318 313 308 295 288 290 284 271 286 299 302 302 291 296 293 287 289 299 305 302 308 308 306 303 312 307 316 307 303 307 302 301 305 303 303 nan nan nan nan nan nan nan nan nan nan nan nan nan nan nan nan nan nan
284 283 285 291 295 298 302 302 301 304 319 328 326 320 315 320 323 318 312 310 311 311 311 322 313 309 307 314 313 305 303 312 310 310 309 311 301 296 287 279 281 277 289 296 284 285 286 289 280 290 293 301 300 303 299 302 308 316 308 304 312 307 313 302 291 293 302 nan nan nan nan nan nan nan nan nan nan nan nan nan nan nan nan nan nan
283 288 289 291 291 293 295 301 307 319 326 328 320 316 308 308 311 305 303 304 308 310 313 321 307 305 308 310 300 296 305 310 313 313 310 311 305 298 290 281 275 268 251 268 282 276 279 287 281 273 277 277 281 282 299 298 307 317 307 312 316 308 304 298 294 298 309 nan nan nan nan nan nan nan nan nan nan nan nan nan nan nan nan nan nan
275 283 288 292 294 297 302 310 321 329 330 326 322 318 314 314 314 307 306 311 311 308 298 301 303 302 310 313 306 316 313 312 313 311 311 311 305 301 298 289 280 265 252 228 230 273 274 277 275 277 274 275 290 291 301 301 300 305 309 304 309 307 307 308 300 295 304 310 nan nan nan nan nan 337 nan nan nan nan nan nan nan nan nan nan nan
276 280 285 289 294 300 310 319 330 331 326 326 323 325 325 320 317 311 309 309 305 305 307 311 307 304 306 309 311 319 315 313 312 312 311 312 307 303 300 296 280 265 254 247 238 250 276 274 274 269 271 269 274 287 295 296 298 294 296 299 307 305 304 303 298 296 304 311 311 nan nan nan nan nan nan nan nan nan nan nan nan nan nan nan nan
272 275 282 289 293 300 311 320 326 327 328 327 330 330 328 327 326 318 310 304 297 297 294 294 301 308 308 311 313 318 315 312 308 309 310 312 312 308 309 307 295 285 275 264 258 234 230 264 271 272 273 272 271 279 291 295 298 298 290 295 307 300 301 296 294 293 298 297 297 304 316 322 nan nan nan nan nan nan nan nan nan nan nan nan nan
266 272 277 285 295 302 310 314 320 322 322 321 322 321 327 329 324 316 307 300 290 288 292 298 310 311 306 311 315 316 318 312 310 306 310 314 315 313 309 303 297 291 291 285 275 263 249 237 253 266 263 269 281 285 287 294 289 276 288 294 298 303 302 293 293 289 288 298 297 306 308 316 325 nan nan nan nan nan nan nan nan nan 355 357 359
261 265 272 282 289 299 305 311 316 316 317 313 320 321 325 324 312 298 291 292 291 297 296 295 307 316 312 313 312 311 315 315 314 312 312 314 315 315 313 310 300 290 277 272 266 265 264 257 246 264 260 248 256 276 273 268 267 252 259 291 291 294 295 289 292 291 286 297 293 302 305 315 331 334 nan nan nan nan nan nan nan 356 353 351 357
260 264 269 274 281 288 293 301 311 314 313 313 316 315 308 311 317 308 294 297 307 307 306 304 311 316 311 313 313 317 321 318 315 313 310 313 315 315 314 311 303 293 284 277 274 265 261 256 253 257 262 253 256 261 274 275 275 279 271 282 288 285 287 289 288 285 290 287 290 301 308 307 315 301 319 nan nan nan nan nan 351 350 346 343 356
259 262 270 279 283 288 298 304 303 303 306 307 304 296 298 306 310 313 314 317 310 304 302 301 300 307 314 314 316 317 320 318 315 314 311 312 316 317 315 314 307 298 286 281 277 274 269 266 270 262 270 275 261 258 272 271 284 279 280 276 281 284 286 287 285 286 286 284 281 283 287 289 290 304 306 315 323 nan nan nan 341 339 343 346 353
260 267 270 270 276 285 289 294 295 300 309 312 301 297 302 296 293 320 314 313 310 306 308 303 302 309 313 312 312 316 322 316 315 314 315 316 316 317 318 315 309 300 293 291 288 282 277 274 277 275 260 263 282 271 261 249 251 267 264 255 239 253 283 285 284 271 268 278 285 282 284 285 289 301 311 316 325 326 332 339 344 nan 339 349 353
257 261 265 266 267 273 283 288 293 298 295 286 280 281 279 261 251 280 301 307 306 306 306 304 305 308 311 312 312 315 319 318 317 316 316 319 319 316 318 317 312 306 300 297 293 287 280 278 275 268 262 249 248 256 255 258 245 254 266 276 259 251 268 271 267 265 267 267 268 281 280 286 292 300 306 314 321 322 335 340 346 332 329 nan 348
254 256 260 263 269 275 277 284 289 290 288 285 284 282 273 257 252 271 293 301 304 301 296 298 302 304 308 309 310 312 316 318 316 314 314 318 318 317 317 318 318 311 308 301 293 288 283 278 273 267 265 262 254 256 262 268 260 252 250 264 259 267 257 261 266 266 267 265 270 278 282 287 296 300 308 312 320 323 331 339 336 329 325 328 337
253 254 254 258 259 269 277 281 284 285 285 280 276 275 272 264 263 275 286 291 295 293 295 299 300 303 306 309 308 309 313 315 319 318 314 315 317 317 316 315 316 314 313 309 300 293 290 288 283 275 267 264 266 263 272 267 261 260 255 254 255 257 267 265 264 262 269 270 265 268 282 286 295 303 310 312 314 323 320 324 316 330 323 330 330
244 248 251 256 263 267 272 277 279 281 281 281 275 272 266 267 273 280 285 289 289 292 299 298 302 303 305 307 306 309 313 315 320 322 317 316 314 313 311 312 315 315 315 312 306 297 296 294 288 282 276 274 277 278 276 270 260 260 264 267 251 251 261 275 275 269 268 271 271 271 274 280 283 288 296 308 310 317 321 314 317 317 317 321 320
243 244 245 251 260 264 268 273 277 277 277 273 273 271 271 272 276 281 289 292 300 301 294 294 296 301 304 306 309 312 312 312 314 318 318 316 313 310 309 310 312 314 311 311 309 303 300 298 295 288 285 279 274 273 271 276 268 257 265 262 258 265 266 257 267 262 271 269 267 269 266 271 279 292 301 303 301 311 309 309 313 312 317 315 316
245 246 249 250 254 260 266 272 276 273 270 269 270 272 274 275 278 280 280 282 285 288 291 298 300 301 303 302 307 310 310 309 310 314 314 311 313 312 309 307 307 308 309 309 308 305 303 302 298 291 289 283 276 274 274 272 277 273 271 265 257 265 270 264 259 261 261 264 262 267 272 277 275 256 282 298 305 302 299 303 303 306 312 308 310
246 249 250 252 254 260 264 268 272 273 272 272 271 275 273 278 278 280 285 290 289 293 297 297 296 298 300 303 305 306 308 306 305 306 306 308 306 306 306 305 302 299 299 302 305 310 308 304 298 293 292 287 281 278 280 276 276 281 281 276 266 260 266 268 270 261 259 260 257 263 263 275 290 298 301 299 301 299 293 295 300 304 305 297 304
245 248 251 252 252 256 261 262 267 269 264 263 260 263 268 270 274 279 286 289 292 291 293 296 297 299 302 303 303 305 306 306 305 303 303 306 304 303 305 303 302 298 295 296 300 304 304 302 299 296 289 290 291 284 280 278 284 280 284 280 276 271 268 265 263 263 258 261 265 262 262 269 280 296 296 296 299 295 293 294 293 297 296 294 301
244 247 248 251 253 252 254 256 255 259 257 255 258 260 265 269 275 280 284 289 289 290 292 293 295 298 300 298 299 301 302 302 302 302 304 307 306 302 302 303 304 302 297 292 292 297 304 304 301 294 292 290 290 290 283 286 288 279 278 275 272 269 265 263 266 262 261 259 250 268 269 265 266 283 289 287 289 286 291 292 290 298 290 295 294
248 247 247 251 252 253 252 255 251 253 253 248 251 254 258 262 267 267 267 273 281 288 294 297 299 298 298 296 295 296 293 292 295 296 296 306 308 306 302 303 302 301 297 294 289 291 296 300 302 299 292 289 287 292 291 286 290 282 277 273 272 266 261 262 261 263 254 251 252 252 255 273 286 288 289 286 287 283 292 289 290 294 290 290 294
250 248 249 250 255 256 254 258 258 258 255 252 250 250 255 259 263 263 267 271 275 281 287 296 299 299 299 298 296 293 291 293 295 293 294 298 307 303 297 289 291 295 296 296 291 288 288 294 298 295 292 293 288 290 292 288 287 287 282 275 274 272 271 272 271 269 266 258 255 258 nan 265 290 285 288 287 289 291 291 293 285 nan 295 291 290